User: anonymous   Login
Location: Mascot Post Office (historical)
(40.2645°N, 99.5462°W)
Time: 20:48:48
(UTC+00:00)
Language:

APEX - Orbit

View from above orbital plane
View from above orbital plane
View from above satellite
View from above satellite

Ground track
Ground track

The orbit data is extracted from the following two-line orbital elements,

1 23191U 94046A   20272.44290378  .00014347  00000-0  42934-3 0  9993
2 23191  69.9146 288.3190 0546796 359.2707   0.7565 14.52105595289890
Epoch (UTC): 28 September 2020 10:37:46
Eccentricity: 0.0546796
inclination: 69.9146°
perigee height: 331 km
apogee height: 1107 km
right ascension of ascending node: 288.3190°
argument of perigee: 359.2707°
revolutions per day: 14.52105595
mean anomaly at epoch: 0.7565°
orbit number at epoch: 28989

The dashed part of the orbit path shows where the satellite is in the earth's shadow,  

DLR